Regional Weather Roundup
Issued by NWS

Home | Current Version | Previous Version | Text Only | Print | Product List | Glossary On
Versions: 1 2 3 4 5 6 7 8 9 10 11 12 13 14 15 16 17 18 19 20 21 22 23 24 25 26 27 28
000
ASUS42 KTBW 271316
RWRFL
FLORIDA REGIONAL WEATHER ROUNDUP
NATIONAL WEATHER SERVICE TAMPA BAY RUSKIN FL
900 AM EDT MON MAR 27 2017

NOTE: "FAIR" INDICATES FEW OR NO CLOUDS BELOW 12,000 FEET WITH NO
SIGNIFICANT WEATHER AND/OR OBSTRUCTIONS TO VISIBILITY.

FLZ001>010-012>015-112-114-115-271400-
PANHANDLE FLORIDA

CITY           SKY/WX    TMP DP  RH WIND       PRES   REMARKS
PENSACOLA      CLOUDY    71  68  90 E3        30.07R
PENSACOLA NAS  PTSUNNY   70  68  93 SE5       30.07R
MILTON NAS     FOG       66  66 100 CALM      30.09R VSB 1/2
CRESTVIEW      CLOUDY    68  65  90 E3        30.11R
DUKE FIELD     CLOUDY    68  66  95 E6        30.09R
VALPARAISO     CLOUDY    68  68 100 SE12      30.10R FOG
MARY ESTHER    DRZL/FOG  66  66 100 E9        30.08R VSB 1/4
TRI COUNTY     FOG       62  62 100 CALM      30.13R VSB 1/2
PANAMA CITY    CLOUDY    65  65 100 CALM      30.10R FOG
TYNDALL AFB    CLOUDY    64  64 100 E5        30.11R FOG
APALACHICOLA   PTSUNNY   68  68 100 SE6       30.09R

STATION/POSITION SKY/WX   TEMP    WIND        PRES    WAVE   SWELL
                          AIR SEA DIR/SP/G            HT/PER HT/PER
                          (F)     (DEG/KT/KT) (MB)    (FT/S) (FT/S)
30.1N   87.6W              69 69  150/  6/  8 1017.2    3/ 5   2/ 5
29.2N   88.2W              72 73  150/ 10/ 12 1017.5R   3/ 5   2/ 5
28.8N   86.0W              71 71              1018.3    2/ 7   2/ 7
PANAMA CITY BEAC           66 71  140/ 11/ 12 1019.6R
TOWER C                    68     120/  8/  9 1019.3R
28.5N   84.5W              70 69  100/  8/ 10 1018.3    2/ 6   2/ 6

$$
FLZ011-016>038-118-127-128-134-139-239-271400-
NORTH FLORIDA

CITY           SKY/WX    TMP DP  RH WIND       PRES   REMARKS
MARIANNA       CLOUDY    61  61 100 CALM      30.12R FOG
TALLAHASSEE    PTSUNNY   59  59 100 CALM      30.11R
PERRY          HAZE      65  60  86 SE6       30.13R VSB 1/2
CROSS CITY     SUNNY     64  59  82 S6        30.13R
LAKE CITY      FAIR      63  63 100 SE3       30.14R
GAINESVILLE    SUNNY     65  61  87 CALM      30.13R
WILLISTON      SUNNY     64  61  88 CALM      30.13R
PALATKA        FAIR      61  61 100 CALM      30.14R
MAYPORT NAS    SUNNY     67  63  87 SW5       30.14R
JACKSONVILLE   SUNNY     64  62  93 CALM      30.14R
JAX NAS        SUNNY     67  62  84 CALM      30.15R
FERNANDINA BEA FAIR      70  64  83 CALM      30.13R
ST AUGUSTINE   SUNNY     67  61  81 CALM      30.15R
PALM COAST     SUNNY     64  63  94 CALM      30.14R

STATION/POSITION SKY/WX   TEMP    WIND        PRES    WAVE   SWELL
                          AIR SEA DIR/SP/G            HT/PER HT/PER
                          (F)     (DEG/KT/KT) (MB)    (FT/S) (FT/S)
SHELL POINT      NOT AVBL
KEATON BEACH               61      90/  7/  8 1019.1R
CEDAR KEY                  69     150/ 11/ 12 1019.8R
FERNANDINA                 68 66  160/  3/  5 1021.2R
30.7N   81.3W                 65                N/A     3/10   2/11
MAYPORT                    66 67  240/  2/  2 1020.8R
31.4N   80.9W              64 62  180/  2/  2 1019.7    4/10   3/10
ST AUGUSTINE               65 68   CALM  /  1 1020.9R

$$
FLZ040-043>046-052-053-057-058-063-144-271400-
INTERIOR CENTRAL FLORIDA

CITY           SKY/WX    TMP DP  RH WIND       PRES   REMARKS
OCALA          SUNNY     64  57  77 CALM      30.14R
THE VILLAGES     N/A     66  64  94 CALM      30.04R
LEESBURG       SUNNY     68  62  81 CALM      30.14R
SANFORD        SUNNY     68  63  84 CALM      30.13R
ORLANDO EXEC   SUNNY     70  63  78 CALM      30.12R
ORLANDO INTL   SUNNY     69  62  78 N3        30.12S
KISSIMMEE      SUNNY     68  62  81 CALM      30.14R
WINTER HAVEN   SUNNY     68  61  78 NE3       30.13R
LAKELAND       SUNNY     66  63  88 CALM      30.13R
BARTOW         SUNNY     64  64 100 CALM      30.13R
OKEECHOBEE     SUNNY    N/A N/A N/A CALM      30.12R

$$
FLZ041-047-054-059-064-141-147-271400-
EAST CENTRAL FLORIDA

CITY           SKY/WX    TMP DP  RH WIND       PRES   REMARKS
ORMOND BEACH   SUNNY     63  61  94 CALM      30.13R
DAYTONA BEACH  MOSUNNY   66  63  90 CALM      30.13R
DELAND         SUNNY     64  61  88 CALM      30.13R
NEW SMYRNA BEA SUNNY     68  63  83 CALM      30.14
JFK SPACE CTR  SUNNY     69  65  89 N3        30.11R
PATRICK AFB    SUNNY     73  60  63 NW6       30.11R
MELBOURNE      PTSUNNY   69  64  84 NW5       30.11R
VERO BEACH     SUNNY     71  63  75 N6        30.10R
FT PIERCE      SUNNY     70  63  78 CALM      30.10R
STUART         MOSUNNY   72  64  78 VRB3      30.10R

STATION/POSITION SKY/WX   TEMP    WIND        PRES    WAVE   SWELL
                          AIR SEA DIR/SP/G            HT/PER HT/PER
                          (F)     (DEG/KT/KT) (MB)    (FT/S) (FT/S)
TRIDENT PIER               71 71  330/  3/  4 1020.8R
28.4N   80.5W                 71                N/A     3/ 9   2/11
27.5N   80.2W                 73                N/A     4/11   2/11

$$
FLZ050-056-061-142-242-148-248-149-249-151-251-155-255-
160-260-271400-
WEST CENTRAL FLORIDA

CITY           SKY/WX    TMP DP  RH WIND       PRES   REMARKS
CRYSTAL RIVER  FAIR      64  59  82 CALM      30.13R
INVERNESS      FAIR      64  63  94 CALM      30.14R
BROOKSVILLE    SUNNY     67  61  81 E3        30.13R
CLEARWATER AIR FAIR      70  63  78 SE5       30.11R
ST PETE CLEARW SUNNY     70  64  81 E3        30.11R
TAMPA INTL     SUNNY     71  61  70 NE3       30.12R
TAMPA EXEC     SUNNY     66  61  82 CALM      30.13R
PLANT CITY     SUNNY     70  64  83 CALM      30.14R
MACDILL AFB    SUNNY     69  67  94 SE6       30.11R
PETER O KNIGHT CLOUDY    70  64  83 E5        30.12R
ST PETERSBURG  SUNNY     68  64  87 SE7       30.10R
SARASOTA       SUNNY     68  61  78 E6        30.10R
VENICE         FAIR      68  63  83 E7        30.11R

STATION/POSITION SKY/WX   TEMP    WIND        PRES    WAVE   SWELL
                          AIR SEA DIR/SP/G            HT/PER HT/PER
                          (F)     (DEG/KT/KT) (MB)    (FT/S) (FT/S)
27.3N   84.2W                 71                N/A     2/ 5
CLEARWATER BEACH           69 71  120/  5/  6 1019.5R
MIDDLE TAMPA BAY           66     100/  6/  7 1019.7R
VENICE                     65 70   60/  6/  7 1018.6R

$$
FLZ066-069-070-075>078-162-262-165-265-271400-
SOUTHWEST FLORIDA AND KEYS

CITY           SKY/WX    TMP DP  RH WIND       PRES   REMARKS
PUNTA GORDA    SUNNY     65  62  90 NE6       30.12R
FT MYERS       SUNNY     71  62  73 NE6       30.09R
SOUTHWEST INTL SUNNY     66  60  81 NE6       30.10R
NAPLES         SUNNY     69  62  78 NE7       30.09R
IMMOKALEE      FAIR      64  61  88 VRB3      30.09R
MARATHON       SUNNY     77  68  73 N9        30.05R
KEY WEST NAS   MOSUNNY   75  65  70 NE10      30.05R
KEY WEST INTL  MOSUNNY   76  65  68 NE7       30.06R

STATION/POSITION SKY/WX   TEMP    WIND        PRES    WAVE   SWELL
                          AIR SEA DIR/SP/G            HT/PER HT/PER
                          (F)     (DEG/KT/KT) (MB)    (FT/S) (FT/S)
NAPLES                        72              1018.6R
26.0N   85.6W              76 78  120/ 14/ 17 1017.7R   3/ 6
DRY TORTUGAS               73     100/ 11/ 12 1017.0R
SAND KEY                   74      60/ 12/ 15 1018.0R
LONG KEY                   72 74   40/  9/ 10 1017.1R
MOLASSES REEF              74 77   90/ 12/ 12 1017.1R

$$
FLZ067-068-071>074-168-172>174-271400-
SOUTHEAST FLORIDA

CITY           SKY/WX    TMP DP  RH WIND       PRES   REMARKS
W PALM BEACH   PTSUNNY   73  59  61 E12       30.09R
BOCA RATON     MOSUNNY   75  61  60 E8        30.08R
FT LAUDER-EXEC MOSUNNY   73  62  68 NW5       30.08R
FT LAUDERDALE  PTSUNNY   70  63  78 NW3       30.07R
POMPANO BEACH  MOSUNNY   74  62  66 NE9       30.08R
PEMBROKE PINES MOSUNNY   69  63  81 CALM      30.09R
OPA LOCKA      MOSUNNY  N/A N/A N/A NW5       30.08R
MIAMI          MOSUNNY   72  62  71 NW6       30.07R
WEST KENDALL   SUNNY     71  63  75 N6        30.07R
HOMESTEAD      MOSUNNY   69  64  84 NW6       30.06R

STATION/POSITION SKY/WX   TEMP    WIND        PRES    WAVE   SWELL
                          AIR SEA DIR/SP/G            HT/PER HT/PER
                          (F)     (DEG/KT/KT) (MB)    (FT/S) (FT/S)
PORT EVERGLADES            74      90/  4/  7 1017.9R
VIRGINIA KEY               74     100/  5/  6 1018.5R
LAKE WORTH                        100/ 10/ 12   N/A
FOWEY ROCKS                74 76   80/ 10/ 11 1017.8R
SETTLEMENT POINT           71      80/ 11/ 12 1018.1R

$$





USA.gov is the U.S. government's official web portal to all federal, state and local government web resources and services.